Location: Huberhof
(49.2050°N, 7.4980°E)
Time: 00:25:04
(UTC+00:00)

Cosmos 1825 - Pass Details

Date: 29 October 2020
Orbit: 502 x 508 km, 82.5° (Epoch: 26 November)

Event Time Altitude Azimuth Distance (km) Brightness Sun altitude
Rises 18:44:39 0° 342° (NNW) 2,626 6.1 -25.2°
Reaches altitude 10° 18:46:54 10° 334° (NNW) 1,734 5.3 -25.6°
Maximum altitude 18:50:22 35° 268° (W) 835 3.7 -26.1°
Enters shadow 18:52:11 22° 218° (SW) 1,148 4.2 -26.4°
